Location: Kuppenheim
(48.8299°N, 8.2568°E)
Time: 14:05:38
(UTC+00:00)

Cosmos 1437 - Visible Passes

Search period start: 22 October 2021 00:00
Search period end: 01 November 2021 00:00
Orbit: 307 x 309 km, 81.1° (Epoch: 22 October)

Date Brightness Start Highest point End Pass type
(mag) Time Alt. Az. Time Alt. Az. Time Alt. Az.
24 Oct 5.4 05:12:35 10° NNE 05:14:04 14° ENE 05:15:33 10° ESE visible
25 Oct 4.7 05:23:40 10° NNE 05:25:55 25° ENE 05:28:09 10° SE visible
28 Oct 5.8 04:27:53 10° NE 04:28:37 11° ENE 04:29:21 10° E visible
29 Oct 5.1 04:37:59 10° NNE 04:39:58 19° ENE 04:41:56 10° ESE visible
30 Oct 3.8 04:48:39 10° N 04:51:06 36° ENE 04:53:33 10° SE visible
31 Oct 2.1 04:59:27 10° N 05:02:03 83° ENE 05:04:38 10° SSE visible
